,,PA_Meas_PMT16A,,PR_Meas_QMR101_102,,RH_Meas_QMH101,,SR_Meas_QMS101,,TA_Meas_QMH101,,GenWind,,GenWind,
time,status,PA,status,PR,status,RH,status,SR,status,TA,status,DirAvg,status,SpdAvg,
2012-12-19, 07:15:04,VALID,916.912,VALID,0,VALID,91.237,VALID,75.8535,VALID,20.465,VALID,83,VALID,0,
2012-12-19, 07:16:04,VALID,916.505,VALID,0,VALID,91.5191,VALID,78.9692,VALID,20.504,VALID,84,VALID,0,
2012-12-19, 07:17:04,VALID,916.521,VALID,0,VALID,91.5801,VALID,81.8702,VALID,20.5625,VALID,84,VALID,0,
2012-12-19, 07:18:04,VALID,916.473,VALID,0,VALID,91.2828,VALID,84.1264,VALID,20.582,VALID,88,VALID,0,
2012-12-19, 07:19:04,VALID,916.456,VALID,0,VALID,91.2142,VALID,85.5232,VALID,20.6031,VALID,110,VALID,0,
2012-12-19, 07:20:04,VALID,916.422,VALID,0,VALID,91.2752,VALID,86.3827,VALID,20.6015,VALID,110,VALID,0,
2012-12-19, 07:21:04,VALID,916.433,VALID,0,VALID,91.2523,VALID,87.2422,VALID,20.5804,VALID,110,VALID,0,
2012-12-19, 07:22:04,VALID,916.433,VALID,0,VALID,91.1456,VALID,89.8208,VALID,20.6405,VALID,110,VALID,0,
2012-12-19, 07:23:04,VALID,916.446,VALID,0,VALID,90.8864,VALID,93.4738,VALID,20.66,VALID,110,VALID,0,
2012-12-19, 07:24:04,VALID,916.429,VALID,0,VALID,90.9016,VALID,96.9119,VALID,20.66,VALID,110,VALID,0,
2012-12-19, 07:25:04,VALID,916.457,VALID,0,VALID,91.0007,VALID,98.9533,VALID,20.6795,VALID,110,VALID,0,
2012-12-19, 07:26:04,VALID,916.464,VALID,0,VALID,90.8101,VALID,99.3831,VALID,20.7365,VALID,110,VALID,0,
2012-12-19, 07:27:04,VALID,916.492,VALID,0,VALID,91.016,VALID,98.631,VALID,20.7185,VALID,107,VALID,0,
2012-12-19, 07:28:04,VALID,916.502,VALID,0,VALID,90.8101,VALID,99.8128,VALID,20.717,VALID,127,VALID,0,
2012-12-19, 07:29:04,VALID,916.496,VALID,0,VALID,90.4899,VALID,102.821,VALID,20.6975,VALID,130,VALID,0,
2012-12-19, 07:30:04,VALID,916.506,VALID,0,VALID,90.4366,VALID,105.077,VALID,20.717,VALID,127,VALID,0,
2012-12-19, 07:31:04,VALID,916.525,VALID,0,VALID,90.9092,VALID,105.4,VALID,20.756,VALID,121,VALID,0,
2012-12-19, 07:32:04,VALID,916.517,VALID,0,VALID,90.5509,VALID,106.044,VALID,20.7365,VALID,134,VALID,0,
2012-12-19, 07:33:04,VALID,916.492,VALID,0,VALID,90.6577,VALID,109.053,VALID,20.8161,VALID,135,VALID,0,
2012-12-19, 07:34:04,VALID,916.545,VALID,0,VALID,90.5814,VALID,113.136,VALID,20.756,VALID,119,VALID,0,
2012-12-19, 07:35:04,VALID,916.561,VALID,0,VALID,91.1761,VALID,116.896,VALID,20.834,VALID,94,VALID,0,
2012-12-19, 07:36:04,VALID,916.563,VALID,0,VALID,90.5967,VALID,119.582,VALID,20.7934,VALID,134,VALID,0,
2012-12-19, 07:37:04,VALID,916.55,VALID,0,VALID,90.6882,VALID,123.342,VALID,20.8551,VALID,134,VALID,0,
2012-12-19, 07:38:04,VALID,916.55,VALID,0,VALID,90.3451,VALID,128.392,VALID,20.9136,VALID,169,VALID,0,
2012-12-19, 07:39:04,VALID,916.573,VALID,0,VALID,89.842,VALID,131.83,VALID,20.9136,VALID,146,VALID,0,
2012-12-19, 07:40:04,VALID,916.55,VALID,0,VALID,89.6361,VALID,136.128,VALID,20.9901,VALID,146,VALID,0,
2012-12-19, 07:41:04,VALID,916.562,VALID,0,VALID,89.7657,VALID,138.599,VALID,20.9901,VALID,158,VALID,0,
2012-12-19, 07:42:04,VALID,916.583,VALID,0,VALID,89.4532,VALID,141.178,VALID,21.0486,VALID,190,VALID,0,
2012-12-19, 07:43:04,VALID,916.579,VALID,0,VALID,89.2778,VALID,144.938,VALID,21.0876,VALID,168,VALID,0,
2012-12-19, 07:44:04,VALID,916.576,VALID,0,VALID,89.3312,VALID,147.517,VALID,21.2047,VALID,168,VALID,0,
2012-12-19, 07:45:04,VALID,916.625,VALID,0,VALID,88.8357,VALID,148.054,VALID,21.2859,VALID,177,VALID,0,
2012-12-19, 07:46:04,VALID,916.598,VALID,0,VALID,87.4787,VALID,148.054,VALID,21.3445,VALID,174,VALID,0,
2012-12-19, 07:47:04,VALID,916.61,VALID,0,VALID,87.3796,VALID,149.236,VALID,21.403,VALID,160,VALID,0,
2012-12-19, 07:48:04,VALID,916.608,VALID,0,VALID,86.8231,VALID,153.319,VALID,21.4209,VALID,155,VALID,0,
2012-12-19, 07:49:04,VALID,916.635,VALID,0,VALID,86.2056,VALID,158.583,VALID,21.4599,VALID,167,VALID,0,
2012-12-19, 07:50:04,VALID,916.646,VALID,0,VALID,87.3948,VALID,161.591,VALID,21.538,VALID,161,VALID,0,
2012-12-19, 07:51:04,VALID,916.619,VALID,0,VALID,86.3504,VALID,175.129,VALID,21.5982,VALID,133,VALID,0,
2012-12-19, 07:52:04,VALID,916.64,VALID,0,VALID,86.1065,VALID,170.617,VALID,21.5787,VALID,149,VALID,0,
2012-12-19, 07:53:04,VALID,916.646,VALID,0,VALID,86.198,VALID,165.03,VALID,21.6762,VALID,147,VALID,0,
2012-12-19, 07:54:04,VALID,916.657,VALID,0,VALID,86.0226,VALID,160.839,VALID,21.7526,VALID,149,VALID,0,
2012-12-19, 07:55:04,VALID,916.664,VALID,0,VALID,84.4446,VALID,153.319,VALID,21.7526,VALID,156,VALID,0,
2012-12-19, 07:56:04,VALID,916.687,VALID,0,VALID,84.4751,VALID,147.087,VALID,21.7526,VALID,125,VALID,0,
2012-12-19, 07:57:04,VALID,916.708,VALID,0,VALID,84.9325,VALID,141.5,VALID,21.7526,VALID,127,VALID,0,
2012-12-19, 07:58:04,VALID,916.745,VALID,0,VALID,83.5374,VALID,137.954,VALID,21.7331,VALID,116,VALID,0,
2012-12-19, 07:59:04,VALID,916.774,VALID,0,VALID,84.9249,VALID,135.161,VALID,21.7136,VALID,126,VALID,0,
2012-12-19, 08:00:04,VALID,916.825,VALID,0,VALID,85.6262,VALID,132.475,VALID,21.7331,VALID,109,VALID,0,
2012-12-19, 08:01:04,VALID,916.87,VALID,0,VALID,86.2285,VALID,130.111,VALID,21.7721,VALID,103,VALID,0,
2012-12-19, 08:02:04,VALID,916.874,VALID,0,VALID,84.7114,VALID,127.21,VALID,21.7917,VALID,107,VALID,0,
2012-12-19, 08:03:04,VALID,916.913,VALID,0,VALID,83.8652,VALID,122.161,VALID,21.7331,VALID,97,VALID,0,
2012-12-19, 08:04:04,VALID,916.926,VALID,0,VALID,85.5042,VALID,118.078,VALID,21.6746,VALID,102,VALID,0,
2012-12-19, 08:05:04,VALID,916.951,VALID,0,VALID,84.4979,VALID,115.392,VALID,21.6762,VALID,133,VALID,0,
2012-12-19, 08:06:04,VALID,916.978,VALID,0,VALID,86.2361,VALID,114.425,VALID,21.6551,VALID,125,VALID,0,
2012-12-19, 08:07:04,VALID,916.953,VALID,0,VALID,85.832,VALID,114.21,VALID,21.6356,VALID,126,VALID,0,
2012-12-19, 08:08:04,VALID,916.929,VALID,0,VALID,84.4598,VALID,113.243,VALID,21.5965,VALID,139,VALID,0,
2012-12-19, 08:09:04,VALID,916.977,VALID,0,VALID,85.0697,VALID,115.822,VALID,21.616,VALID,138,VALID,0,
2012-12-19, 08:10:04,VALID,916.925,VALID,0,VALID,86.0303,VALID,122.698,VALID,21.6762,VALID,143,VALID,0,
2012-12-19, 08:11:04,VALID,916.921,VALID,0,VALID,85.3899,VALID,133.657,VALID,21.6941,VALID,155,VALID,0,
2012-12-19, 08:12:04,VALID,916.929,VALID,0,VALID,85.7558,VALID,143.541,VALID,21.7331,VALID,152,VALID,0,
2012-12-19, 08:13:04,VALID,916.902,VALID,0,VALID,84.6199,VALID,151.277,VALID,21.712,VALID,129,VALID,0,
2012-12-19, 08:14:04,VALID,916.894,VALID,0,VALID,84.9325,VALID,162.344,VALID,21.7721,VALID,145,VALID,0,
2012-12-19, 08:15:04,VALID,916.882,VALID,0,VALID,84.132,VALID,179.964,VALID,21.8112,VALID,146,VALID,0,
2012-12-19, 08:16:04,VALID,916.892,VALID,0,VALID,85.2679,VALID,253.346,VALID,21.9283,VALID,146,VALID,0,
2012-12-19, 08:17:04,VALID,916.883,VALID,0,VALID,83.2096,VALID,247.544,VALID,21.9461,VALID,170,VALID,0,
2012-12-19, 08:18:04,VALID,916.901,VALID,0,VALID,83.2401,VALID,335.968,VALID,22.0632,VALID,181,VALID,0,
2012-12-19, 08:19:04,VALID,916.885,VALID,0,VALID,83.3468,VALID,370.457,VALID,22.1998,VALID,168,VALID,0,
2012-12-19, 08:20:04,VALID,916.924,VALID,0,VALID,83.789,VALID,358.101,VALID,22.434,VALID,145,VALID,0,
2012-12-19, 08:21:04,VALID,916.92,VALID,0,VALID,80.8616,VALID,341.555,VALID,22.6309,VALID,155,VALID,0,
2012-12-19, 08:22:04,VALID,916.913,VALID,0,VALID,80.2441,VALID,350.258,VALID,22.7285,VALID,152,VALID,0,
2012-12-19, 08:23:04,VALID,916.905,VALID,0,VALID,78.8109,VALID,391.945,VALID,22.9237,VALID,126,VALID,0,
2012-12-19, 08:24:04,VALID,916.917,VALID,0,VALID,79.5885,VALID,439.434,VALID,23.1171,VALID,156,VALID,0,
2012-12-19, 08:25:04,VALID,916.907,VALID,0,VALID,78.9252,VALID,421.492,VALID,23.4117,VALID,156,VALID,0,
2012-12-19, 08:26:04,VALID,916.916,VALID,0,VALID,76.8517,VALID,344.671,VALID,23.646,VALID,164,VALID,0,
2012-12-19, 08:27:04,VALID,916.933,VALID,0,VALID,75.4185,VALID,315.017,VALID,23.7809,VALID,185,VALID,0,
2012-12-19, 08:28:04,VALID,916.921,VALID,0,VALID,74.2368,VALID,248.726,VALID,23.898,VALID,182,VALID,0,
2012-12-19, 08:29:04,VALID,916.925,VALID,0,VALID,74.4427,VALID,246.148,VALID,23.9371,VALID,184,VALID,0,
2012-12-19, 08:30:04,VALID,916.94,VALID,0,VALID,75.3651,VALID,226.271,VALID,23.9176,VALID,183,VALID,0,
2012-12-19, 08:31:04,VALID,916.947,VALID,0,VALID,75.0754,VALID,207.684,VALID,23.9389,VALID,188,VALID,0,
2012-12-19, 08:32:04,VALID,916.958,VALID,0,VALID,74.4884,VALID,196.295,VALID,23.9176,VALID,187,VALID,0,
2012-12-19, 08:33:04,VALID,916.94,VALID,0,VALID,75.3803,VALID,187.377,VALID,23.859,VALID,221,VALID,0,
2012-12-19, 08:34:04,VALID,916.96,VALID,0,VALID,76.5238,VALID,181.361,VALID,23.6833,VALID,170,VALID,0,
2012-12-19, 08:35:04,VALID,916.958,VALID,0,VALID,78.262,VALID,176.741,VALID,23.5466,VALID,166,VALID,0,
2012-12-19, 08:36:04,VALID,916.916,VALID,0,VALID,78.9328,VALID,172.121,VALID,23.5271,VALID,168,VALID,0,
2012-12-19, 08:37:04,VALID,916.979,VALID,0,VALID,77.9952,VALID,164.922,VALID,23.4472,VALID,149,VALID,0,
2012-12-19, 08:38:04,VALID,916.962,VALID,0,VALID,76.7525,VALID,158.153,VALID,23.4277,VALID,156,VALID,0,
2012-12-19, 08:39:04,VALID,916.959,VALID,0,VALID,75.9521,VALID,152.352,VALID,23.3691,VALID,156,VALID,0,
2012-12-19, 08:40:04,VALID,916.987,VALID,0,VALID,76.9355,VALID,146.55,VALID,23.3319,VALID,156,VALID,0,
2012-12-19, 08:41:04,VALID,916.981,VALID,0,VALID,78.1858,VALID,143.649,VALID,23.2911,VALID,156,VALID,0,
2012-12-19, 08:42:04,VALID,917.004,VALID,0,VALID,78.2086,VALID,144.401,VALID,23.2325,VALID,156,VALID,0,
2012-12-19, 08:43:04,VALID,917.031,VALID,0,VALID,78.7728,VALID,144.938,VALID,23.0568,VALID,167,VALID,0,
2012-12-19, 08:44:04,VALID,917.026,VALID,0,VALID,78.9252,VALID,142.897,VALID,22.9592,VALID,163,VALID,0,
2012-12-19, 08:45:04,VALID,917.076,VALID,0,VALID,79.4894,VALID,141.178,VALID,22.8829,VALID,155,VALID,0,
2012-12-19, 08:46:04,VALID,917.053,VALID,0,VALID,80.0535,VALID,142.682,VALID,22.8048,VALID,159,VALID,0,
2012-12-19, 08:47:04,VALID,917.06,VALID,0,VALID,81.0217,VALID,152.459,VALID,22.7463,VALID,159,VALID,0,
2012-12-19, 08:48:04,VALID,917.06,VALID,0,VALID,81.0826,VALID,167.071,VALID,22.6682,VALID,159,VALID,0,
2012-12-19, 08:49:04,VALID,917.07,VALID,0,VALID,80.5261,VALID,180.823,VALID,22.6487,VALID,159,VALID,0,
2012-12-19, 08:50:04,VALID,917.095,VALID,0,VALID,81.2427,VALID,195.006,VALID,22.7072,VALID,159,VALID,0,
2012-12-19, 08:51:04,VALID,917.107,VALID,0,VALID,80.9302,VALID,213.163,VALID,22.8261,VALID,163,VALID,0,
2012-12-19, 08:52:04,VALID,917.105,VALID,0,VALID,79.3521,VALID,295.248,VALID,22.8829,VALID,164,VALID,0,
2012-12-19, 08:53:04,VALID,917.133,VALID,0,VALID,80.3813,VALID,269.14,VALID,23.0195,VALID,164,VALID,0,
2012-12-19, 08:54:04,VALID,917.141,VALID,0,VALID,79.0624,VALID,329.844,VALID,23.2147,VALID,164,VALID,0,
2012-12-19, 08:55:04,VALID,917.152,VALID,0,VALID,78.5059,VALID,328.233,VALID,23.41,VALID,166,VALID,0,
2012-12-19, 08:56:04,VALID,917.158,VALID,0,VALID,75.3956,VALID,343.167,VALID,23.607,VALID,200,VALID,0,
2012-12-19, 08:57:04,VALID,917.197,VALID,0,VALID,73.6651,VALID,351.333,VALID,23.7614,VALID,197,VALID,0,
2012-12-19, 08:58:04,VALID,917.197,VALID,0,VALID,73.8099,VALID,347.142,VALID,24.0152,VALID,205,VALID,0,
2012-12-19, 08:59:04,VALID,917.2,VALID,0,VALID,72.5902,VALID,328.018,VALID,24.2086,VALID,200,VALID,0,
2012-12-19, 09:00:04,VALID,917.231,VALID,0,VALID,71.7745,VALID,307.926,VALID,24.3862,VALID,208,VALID,0,
2012-12-19, 09:01:04,VALID,917.255,VALID,0,VALID,71.0807,VALID,300.513,VALID,24.4234,VALID,212,VALID,0,
2012-12-19, 09:02:04,VALID,917.239,VALID,0,VALID,70.7987,VALID,281.066,VALID,24.5034,VALID,187,VALID,0,
2012-12-19, 09:03:04,VALID,917.243,VALID,0,VALID,72.1861,VALID,265.595,VALID,24.562,VALID,218,VALID,0,
2012-12-19, 09:04:04,VALID,917.248,VALID,0,VALID,70.2955,VALID,250.016,VALID,24.4234,VALID,213,VALID,0,
2012-12-19, 09:05:04,VALID,917.223,VALID,0,VALID,70.7072,VALID,228.312,VALID,24.269,VALID,216,VALID,0,
2012-12-19, 09:06:04,VALID,917.22,VALID,0,VALID,71.7363,VALID,211.014,VALID,24.2086,VALID,215,VALID,0,
2012-12-19, 09:07:04,VALID,917.178,VALID,0,VALID,71.6754,VALID,206.18,VALID,24.23,VALID,234,VALID,0,
2012-12-19, 09:08:04,VALID,917.193,VALID,0,VALID,74.3436,VALID,207.684,VALID,24.111,VALID,228,VALID,0,
2012-12-19, 09:09:04,VALID,917.207,VALID,0,VALID,75.4489,VALID,210.047,VALID,24.0524,VALID,241,VALID,0,
2012-12-19, 09:10:04,VALID,917.191,VALID,0,VALID,75.6167,VALID,210.692,VALID,23.9761,VALID,253,VALID,0,
2012-12-19, 09:11:04,VALID,917.217,VALID,0,VALID,77.7436,VALID,209.08,VALID,23.8785,VALID,223,VALID,0,
2012-12-19, 09:12:04,VALID,917.189,VALID,0,VALID,78.3916,VALID,206.394,VALID,23.859,VALID,220,VALID,0,
2012-12-19, 09:13:04,VALID,917.186,VALID,0,VALID,76.8212,VALID,202.956,VALID,23.7809,VALID,243,VALID,0,
2012-12-19, 09:14:04,VALID,917.192,VALID,0,VALID,74.6561,VALID,196.402,VALID,23.6247,VALID,246,VALID,0,
2012-12-19, 09:15:04,VALID,917.206,VALID,0,VALID,75.3956,VALID,191.138,VALID,23.5643,VALID,254,VALID,0,
2012-12-19, 09:16:04,VALID,917.187,VALID,0,VALID,77.7512,VALID,187.807,VALID,23.5076,VALID,254,VALID,0,
2012-12-19, 09:17:04,VALID,917.215,VALID,0,VALID,77.4082,VALID,197.584,VALID,23.488,VALID,254,VALID,0,
2012-12-19, 09:18:04,VALID,917.202,VALID,0,VALID,77.6064,VALID,204.675,VALID,23.4295,VALID,191,VALID,0,
2012-12-19, 09:19:04,VALID,917.17,VALID,0,VALID,78.8414,VALID,221.114,VALID,23.449,VALID,186,VALID,0,
2012-12-19, 09:20:04,VALID,917.199,VALID,0,VALID,79.314,VALID,217.998,VALID,23.4667,VALID,242,VALID,0,
2012-12-19, 09:21:04,VALID,917.224,VALID,0,VALID,79.6571,VALID,223.478,VALID,23.4685,VALID,287,VALID,0,
2012-12-19, 09:22:04,VALID,917.21,VALID,0,VALID,80.5109,VALID,237.875,VALID,23.3887,VALID,264,VALID,0,
2012-12-19, 09:23:04,VALID,917.255,VALID,0,VALID,80.5033,VALID,238.197,VALID,23.3514,VALID,264,VALID,0,
2012-12-19, 09:24:04,VALID,917.241,VALID,0,VALID,81.2427,VALID,235.189,VALID,23.252,VALID,264,VALID,0,
2012-12-19, 09:25:04,VALID,917.213,VALID,0,VALID,81.4257,VALID,236.478,VALID,23.2147,VALID,264,VALID,0,
2012-12-19, 09:26:04,VALID,917.21,VALID,0,VALID,81.5248,VALID,242.28,VALID,23.2715,VALID,274,VALID,0,
2012-12-19, 09:27:04,VALID,917.197,VALID,0,VALID,81.7916,VALID,250.983,VALID,23.4082,VALID,274,VALID,0,
2012-12-19, 09:28:04,VALID,917.176,VALID,0,VALID,82.3786,VALID,267.851,VALID,23.6052,VALID,350,VALID,0,
2012-12-19, 09:29:04,VALID,917.182,VALID,0,VALID,76.8212,VALID,315.232,VALID,23.701,INVALID,360,VALID,0,
2012-12-19, 09:30:04,VALID,917.144,VALID,0,VALID,77.0727,VALID,580.719,VALID,23.7986,VALID,351,VALID,0,
2012-12-19, 09:31:04,VALID,917.133,VALID,0,VALID,77.553,VALID,494.981,VALID,23.9939,INVALID,360,VALID,0,
2012-12-19, 09:32:04,VALID,917.097,VALID,0,VALID,76.8974,VALID,696.863,VALID,24.1696,VALID,351,VALID,0,
2012-12-19, 09:33:04,VALID,917.09,VALID,0,VALID,74.1987,VALID,444.484,VALID,24.3258,VALID,340,VALID,0,
2012-12-19, 09:34:04,VALID,917.073,VALID,0,VALID,75.0906,VALID,420.31,VALID,24.3063,VALID,328,VALID,0,
2012-12-19, 09:35:04,VALID,917.057,VALID,0,VALID,75.4718,VALID,396.565,VALID,24.1891,VALID,3,VALID,0,
2012-12-19, 09:36:04,VALID,917.033,VALID,0,VALID,73.2382,VALID,377.011,VALID,24.15,VALID,351,VALID,0,
2012-12-19, 09:37:04,VALID,917.037,VALID,0,VALID,74.3283,VALID,351.01,VALID,24.1305,VALID,360,VALID,0,
2012-12-19, 09:38:04,VALID,917.008,VALID,0,VALID,74.214,VALID,314.588,VALID,24.1305,VALID,349,VALID,0,
2012-12-19, 09:39:04,VALID,916.98,VALID,0,VALID,74.4655,VALID,288.05,VALID,24.1696,VALID,1,VALID,0,
2012-12-19, 09:40:04,VALID,916.995,VALID,0,VALID,74.0615,VALID,274.834,VALID,24.15,VALID,17,VALID,0,
2012-12-19, 09:41:04,VALID,916.985,VALID,0,VALID,72.7731,VALID,290.736,VALID,24.111,VALID,10,VALID,0,
2012-12-19, 09:42:04,VALID,916.961,VALID,0,VALID,74.557,VALID,329.629,VALID,24.0915,VALID,10,VALID,0,
2012-12-19, 09:43:04,VALID,916.923,VALID,0,VALID,74.6332,VALID,455.336,VALID,24.2281,VALID,10,VALID,0,
2012-12-19, 09:44:04,VALID,916.919,VALID,0,VALID,73.1391,VALID,357.886,VALID,24.5015,VALID,10,VALID,0,
2012-12-19, 09:45:04,VALID,916.892,VALID,0,VALID,72.1861,VALID,350.903,VALID,24.6577,VALID,10,VALID,0,
2012-12-19, 09:46:04,VALID,916.925,VALID,0,VALID,71.4085,VALID,354.556,VALID,24.734,VALID,10,VALID,0,
2012-12-19, 09:47:04,VALID,916.926,VALID,0,VALID,72.2014,VALID,380.127,VALID,24.7554,VALID,10,VALID,0,
2012-12-19, 09:48:04,VALID,916.901,VALID,0,VALID,71.6296,VALID,379.482,VALID,24.7358,VALID,10,VALID,0,
2012-12-19, 09:49:04,VALID,916.893,VALID,0,VALID,73.322,VALID,389.152,VALID,24.6968,VALID,10,VALID,0,
2012-12-19, 09:50:04,VALID,916.89,VALID,0,VALID,74.5113,VALID,401.615,VALID,24.734,VALID,10,VALID,0,
2012-12-19, 09:51:04,VALID,916.89,VALID,0,VALID,71.7745,VALID,501.858,VALID,24.7554,VALID,294,VALID,0,
2012-12-19, 09:52:04,VALID,916.857,VALID,0,VALID,72.8951,VALID,444.699,VALID,24.8316,VALID,352,VALID,0,
2012-12-19, 09:53:04,VALID,916.817,VALID,0,VALID,71.5458,VALID,459.526,VALID,24.8921,VALID,257,VALID,0,
2012-12-19, 09:54:04,VALID,916.84,VALID,0,VALID,71.6144,VALID,515.718,VALID,24.7944,VALID,257,VALID,0,
2012-12-19, 09:55:04,VALID,916.805,VALID,0,VALID,73.0552,VALID,511.42,VALID,24.6187,VALID,257,VALID,0,
2012-12-19, 09:56:04,VALID,916.797,VALID,0,VALID,72.9027,VALID,531.726,VALID,24.6382,VALID,257,VALID,0,
2012-12-19, 09:57:04,VALID,916.792,VALID,0,VALID,73.4287,VALID,608.547,VALID,24.7554,VALID,257,VALID,0,
2012-12-19, 09:58:04,VALID,916.797,VALID,0,VALID,72.3081,VALID,584.372,VALID,24.853,VALID,257,VALID,0,
2012-12-19, 09:59:04,VALID,916.779,VALID,0,VALID,74.1682,VALID,660.333,VALID,24.9311,VALID,257,VALID,0,
2012-12-19, 10:00:04,VALID,916.744,VALID,0,VALID,73.5965,VALID,670.755,VALID,25.0288,VALID,257,VALID,0,
2012-12-19, 10:01:04,VALID,916.721,VALID,0,VALID,73.1391,VALID,683.326,VALID,25.1441,VALID,257,VALID,0,
2012-12-19, 10:02:04,VALID,916.745,VALID,0,VALID,72.2776,VALID,664.094,VALID,25.2027,VALID,257,VALID,0,
2012-12-19, 10:03:04,VALID,916.727,VALID,0,VALID,71.5763,VALID,728.558,VALID,25.398,VALID,289,VALID,0,
2012-12-19, 10:04:04,VALID,916.724,VALID,0,VALID,70.6996,VALID,758.535,VALID,25.5366,VALID,235,VALID,0,
2012-12-19, 10:05:04,VALID,916.739,VALID,0,VALID,71.7287,VALID,720.823,VALID,25.7495,VALID,77,VALID,0,
2012-12-19, 10:06:04,VALID,916.745,VALID,0,VALID,69.3578,VALID,623.803,VALID,25.6128,VALID,236,VALID,0,
2012-12-19, 10:07:04,VALID,916.713,VALID,0,VALID,69.396,VALID,524.528,VALID,25.4565,VALID,214,VALID,0,
2012-12-19, 10:08:04,VALID,916.704,VALID,0,VALID,70.4404,VALID,425.36,VALID,25.3784,VALID,215,VALID,0,
2012-12-19, 10:09:04,VALID,916.676,VALID,0,VALID,69.556,VALID,349.184,VALID,25.2417,VALID,250,VALID,0,
2012-12-19, 10:10:04,VALID,916.68,VALID,0,VALID,71.1341,VALID,348.969,VALID,24.8921,VALID,260,VALID,0,
2012-12-19, 10:11:04,VALID,916.682,VALID,0,VALID,71.4085,VALID,384.21,VALID,24.6577,VALID,228,VALID,0,
2012-12-19, 10:12:04,VALID,916.668,VALID,0,VALID,73.1543,VALID,392.268,VALID,24.6382,VALID,218,VALID,0,
2012-12-19, 10:13:04,VALID,916.672,VALID,0,VALID,72.27,VALID,390.119,VALID,24.7358,VALID,218,VALID,0,
2012-12-19, 10:14:04,VALID,916.659,VALID,0,VALID,71.3475,VALID,424.822,VALID,24.8335,VALID,270,VALID,0,
2012-12-19, 10:15:04,VALID,916.69,VALID,0,VALID,71.6525,VALID,438.36,VALID,24.8121,VALID,270,VALID,0,
2012-12-19, 10:16:04,VALID,916.685,VALID,0,VALID,70.6614,VALID,417.624,VALID,24.8902,VALID,260,VALID,0,
2012-12-19, 10:17:04,VALID,916.7,VALID,0,VALID,70.5547,VALID,504.329,VALID,24.7926,VALID,254,VALID,0,
2012-12-19, 10:18:04,VALID,916.667,VALID,0,VALID,69.922,VALID,550.421,VALID,24.8688,VALID,255,VALID,0,
2012-12-19, 10:19:04,VALID,916.658,VALID,0,VALID,70.6538,VALID,906.696,VALID,25.0269,VALID,208,VALID,0,
2012-12-19, 10:20:04,VALID,916.635,VALID,0,VALID,70.387,VALID,443.087,VALID,25.2417,VALID,230,VALID,0,
2012-12-19, 10:21:04,VALID,916.619,VALID,0,VALID,69.922,VALID,412.574,VALID,25.3394,VALID,229,VALID,0,
2012-12-19, 10:22:04,VALID,916.611,VALID,0,VALID,69.5484,VALID,409.995,VALID,25.0659,VALID,268,VALID,0,
2012-12-19, 10:23:04,VALID,916.604,VALID,0,VALID,70.57,VALID,396.243,VALID,25.0055,VALID,268,VALID,0,
2012-12-19, 10:24:04,VALID,916.543,VALID,0,VALID,70.4937,VALID,398.177,VALID,25.1441,VALID,267,VALID,0,
2012-12-19, 10:25:04,VALID,916.543,VALID,0,VALID,70.4404,VALID,375.829,VALID,25.064,VALID,261,VALID,0,
2012-12-19, 10:26:04,VALID,916.492,VALID,0,VALID,71.7058,VALID,362.936,VALID,24.9488,VALID,263,VALID,0,
2012-12-19, 10:27:04,VALID,916.507,VALID,0,VALID,73.322,VALID,284.182,VALID,24.9292,VALID,178,VALID,0,
2012-12-19, 10:28:04,VALID,916.51,VALID,0,VALID,72.0794,VALID,256.032,VALID,24.9878,VALID,259,VALID,0,
2012-12-19, 10:29:04,VALID,916.486,VALID,0,VALID,72.8112,VALID,253.346,VALID,24.9292,VALID,259,VALID,0,
2012-12-19, 10:30:04,VALID,916.523,VALID,0,VALID,72.4758,VALID,261.189,VALID,24.9097,VALID,259,VALID,0,
2012-12-19, 10:31:04,VALID,916.49,VALID,0,VALID,73.505,VALID,273.223,VALID,24.8902,VALID,263,VALID,0,
2012-12-19, 10:32:04,VALID,916.464,VALID,0,VALID,73.7489,VALID,262.049,VALID,24.9292,VALID,55,VALID,0,
2012-12-19, 10:33:04,VALID,916.436,VALID,0,VALID,71.6982,VALID,269.033,VALID,24.9116,VALID,305,VALID,0,
2012-12-19, 10:34:04,VALID,916.478,VALID,0,VALID,73.7642,VALID,284.719,VALID,24.7144,VALID,314,VALID,0,
2012-12-19, 10:35:04,VALID,916.478,VALID,0,VALID,73.3982,VALID,293.529,VALID,24.6968,VALID,318,VALID,0,
2012-12-19, 10:36:04,VALID,916.477,VALID,0,VALID,73.7947,VALID,296.43,VALID,24.7554,VALID,318,VALID,0,
2012-12-19, 10:37:04,VALID,916.453,VALID,0,VALID,72.3691,VALID,499.601,VALID,24.7749,VALID,281,VALID,0,
2012-12-19, 10:38:04,VALID,916.429,VALID,0,VALID,71.1341,VALID,308.464,VALID,24.814,VALID,329,VALID,0,
2012-12-19, 10:39:04,VALID,916.412,VALID,0,VALID,69.5256,VALID,399.896,VALID,24.814,VALID,297,VALID,0,
2012-12-19, 10:40:04,VALID,916.422,VALID,0,VALID,72.1175,VALID,523.99,VALID,24.8335,VALID,24,VALID,0,
2012-12-19, 10:41:04,VALID,916.401,VALID,0,VALID,71.8964,VALID,539.892,VALID,25.0093,VALID,19,VALID,0,
2012-12-19, 10:42:04,VALID,916.367,VALID,0,VALID,71.1112,VALID,443.732,VALID,25.1441,VALID,359,VALID,0,
2012-12-19, 10:43:04,VALID,916.322,VALID,0,VALID,72.8722,VALID,442.335,VALID,25.2417,VALID,60,VALID,0,
2012-12-19, 10:44:04,VALID,916.322,VALID,0,VALID,70.1812,VALID,482.626,VALID,25.0269,VALID,63,VALID,0,
2012-12-19, 10:45:04,VALID,916.279,VALID,0,VALID,71.5229,VALID,467.691,VALID,24.8902,VALID,67,VALID,0,
2012-12-19, 10:46:04,VALID,916.268,VALID,0,VALID,72.6359,VALID,516.04,VALID,24.8902,VALID,354,VALID,0,
2012-12-19, 10:47:04,VALID,916.265,VALID,0,VALID,74.9077,VALID,511.957,VALID,25.0874,VALID,351,VALID,0,
2012-12-19, 10:48:04,VALID,916.271,VALID,0,VALID,69.1825,VALID,405.268,VALID,25.2241,VALID,13,VALID,0,
2012-12-19, 10:49:04,VALID,916.307,VALID,0,VALID,69.6399,VALID,350.795,VALID,25.2632,VALID,16,VALID,0,
2012-12-19, 10:50:04,VALID,916.344,VALID,0,VALID,71.035,VALID,302.984,VALID,25.2808,VALID,13,VALID,0,
2012-12-19, 10:51:04,VALID,916.324,VALID,0,VALID,69.0605,VALID,271.826,VALID,25.3784,VALID,48,VALID,0,
2012-12-19, 10:52:04,VALID,916.334,VALID,0,VALID,69.2282,VALID,258.611,VALID,25.2612,VALID,69,VALID,0,
2012-12-19, 10:53:04,VALID,916.311,VALID,0,VALID,72.4911,VALID,259.9,VALID,25.1441,VALID,18,VALID,0,
2012-12-19, 10:54:04,VALID,916.312,VALID,0,VALID,69.6094,VALID,270.752,VALID,25.1245,VALID,29,VALID,0,
2012-12-19, 10:55:04,VALID,916.288,VALID,0,VALID,69.4493,VALID,277.735,VALID,25.0483,VALID,41,VALID,0,
2012-12-19, 10:56:04,VALID,916.282,VALID,0,VALID,70.3717,VALID,284.719,VALID,25.0288,VALID,30,VALID,0,
2012-12-19, 10:57:04,VALID,916.247,VALID,0,VALID,71.2256,VALID,301.158,VALID,25.0288,VALID,67,VALID,0,
2012-12-19, 10:58:04,VALID,916.231,VALID,0,VALID,70.1202,VALID,325.547,VALID,25.0483,VALID,58,VALID,0,
2012-12-19, 10:59:04,VALID,916.213,VALID,0,VALID,70.4937,VALID,347.787,VALID,25.1441,VALID,65,VALID,0,
2012-12-19, 11:00:04,VALID,916.22,VALID,0,VALID,70.4022,VALID,350.903,VALID,25.2241,VALID,94,VALID,0,
2012-12-19, 11:01:04,VALID,916.208,VALID,0,VALID,70.7758,VALID,362.936,VALID,25.0269,VALID,93,VALID,0,
2012-12-19, 11:02:04,VALID,916.224,VALID,0,VALID,71.5458,VALID,375.292,VALID,24.9702,VALID,93,VALID,0,